Location: Unspecified
(0.0000°N, 0.0000°E)
Time: 13:28:41
(UTC+00:00)

A-11 Canister half - Pass Details

Date: 11 October 2023
Orbit: 1514 x 1686 km, 47.2° (Epoch: 05 December)

Event Time Altitude Azimuth Distance (km) Brightness Sun altitude
Rises 01:37:03 0° 292° (WNW) 4,645 - -61.7°
Reaches altitude 10° 01:40:44 10° 280° (W) 3,669 - -60.8°
Maximum altitude 01:47:58 26° 228° (SW) 2,663 - -59.0°
Drops below altitude 10° 01:55:22 10° 175° (S) 3,736 - -57.2°
Exits shadow 01:57:07 - 169° (SSE) 4,178 11.4 -56.8°
Sets 01:59:14 0° 162° (SSE) 4,747 11.8 -56.3°
